This is the latest recevied weather packets stored in our database for station/object EA3BNF-1. If no packets are shown the sender has not sent any weather packets the latest 10 day(s).
| Time | Temp. | Humidity | Pressure | Rain* | Wind** | Luminosity | Snow |
|---|---|---|---|---|---|---|---|
| 1778001299 | 18.89° C | 60% | 1010.3 hPa | - | - | - | - |
| 1778000643 | 18.89° C | 60% | 1010.2 hPa | - | - | - | - |
| 1777999988 | 19.44° C | 62% | 1010.4 hPa | - | - | - | - |
| 1777999332 | 20.56° C | 61% | 1010.6 hPa | - | - | - | - |
| 1777998676 | 21.67° C | 58% | 1010.5 hPa | - | - | - | - |
| 1777998020 | 22.22° C | 56% | 1010.3 hPa | - | - | - | - |
| 1777997364 | 22.22° C | 57% | 1010.2 hPa | - | - | - | - |
| 1777996709 | 22.22° C | 57% | 1010.3 hPa | - | - | - | - |
| 1777996053 | 22.78° C | 57% | 1010.2 hPa | - | - | - | - |
| 1777995397 | 22.78° C | 57% | 1010.1 hPa | - | - | - | - |
| 1777994742 | 22.78° C | 58% | 1010.2 hPa | - | - | - | - |
| 1777994086 | 22.78° C | 58% | 1010.1 hPa | - | - | - | - |
| 1777993430 | 22.78° C | 58% | 1010.1 hPa | - | - | - | - |
| 1777992775 | 22.78° C | 58% | 1010.1 hPa | - | - | - | - |
| 1777992119 | 22.78° C | 58% | 1010.2 hPa | - | - | - | - |
| 1777991463 | 22.78° C | 58% | 1010.2 hPa | - | - | - | - |
| 1777990808 | 22.78° C | 58% | 1010.1 hPa | - | - | - | - |
| 1777989496 | 22.78° C | 57% | 1010.2 hPa | - | - | - | - |
| 1777988840 | 22.78° C | 59% | 1010.2 hPa | - | - | - | - |
| 1777988185 | 22.22° C | 59% | 1010.2 hPa | - | - | - | - |
| 1777987531 | 22.22° C | 59% | 1010.3 hPa | - | - | - | - |
| 1777986874 | 21.67° C | 59% | 1010.5 hPa | - | - | - | - |
| 1777986216 | 21.67° C | 58% | 1010.5 hPa | - | - | - | - |
| 1777985561 | 21.67° C | 58% | 1010.6 hPa | - | - | - | - |
| 1777984905 | 21.67° C | 57% | 1010.7 hPa | - | - | - | - |
* Rain since midnight (hover to see other rain measurements)
** Current wind speed in m/s (hover to see current wind gust speed)